Weather History for Storm Lake, IA

Change the Weather History Date:

Thursday, November 13, 2014

  Actual Average Record
Temperature  
Mean Temperature 16 °F -  
Max Temperature 23 °F 45 °F 77 °F (1999)
Min Temperature 8 °F 29 °F 8 °F (2014)
Degree Days  
Heating Degree Days 50    
Moisture  
Dew Point 11 °F    
Average Humidity 78    
Maximum Humidity 86    
Minimum Humidity 59    
Precipitation  
Precipitation 0.00 in - - ()
Sea Level Pressure  
Sea Level Pressure 30.44 in    
Wind  
Wind Speed 16 mph (WNW)    
Max Wind Speed 21 mph    
Max Gust Speed 28 mph    
Visibility 10 miles    
Events Snow    
Averages and records for this station are not official NWS values.
T = Trace of Precipitation, MM = Missing Value Source: NWS Daily Summary

Daily Weather History Graph

Daily Weather History Graph

Search for Another Location

Airport:

Trip Planner

Search our weather history database for the weather conditions in past years. The results will help you decide how hot, cold, wet, or windy it might be!

Date:

Astronomy

Nov. 13, 2014 Rise Set
Actual Time 7:09 AM CST 5:00 PM CST
Civil Twilight 6:39 AM CST 5:30 PM CST
Nautical Twilight 6:05 AM CST 6:04 PM CST
Astronomical Twilight 5:32 AM CST 6:37 PM CST
Moon 11:19 PM CST (11/13) 12:29 PM CST (11/13)
Length of Visible Light 10h 50m
Length of Day
9h 50m
Waning Gibbous, 58% of the Moon is Illuminated
Nov 13
Waning Gibbous
Nov 14
Last Quarter
Nov 22
New
Nov 29
First Quarter
Dec 6
Full

Hourly Weather History & Observations

Time (CST) Temp. Windchill Dew Point Humidity Pressure Visibility Wind Dir Wind Speed Gust Speed Precip Events Conditions
12:15 AM 19.4 °F 4.5 °F 14.0 °F 80% 30.43 in 8.0 mi WNW 17.3 mph 24.2 mph N/A Snow Light Snow
12:35 AM 19.4 °F 4.1 °F 14.0 °F 80% 30.43 in 10.0 mi NW 18.4 mph 25.3 mph N/A Snow Light Snow
12:55 AM 19.4 °F 3.6 °F 14.0 °F 80% 30.43 in 7.0 mi WNW 19.6 mph 27.6 mph N/A Snow Light Snow
1:15 AM 19.4 °F 5.0 °F 14.0 °F 80% 30.43 in 5.0 mi WNW 16.1 mph 23.0 mph N/A Snow Light Snow
1:35 AM 19.4 °F 3.6 °F 14.0 °F 80% 30.43 in 6.0 mi WNW 19.6 mph - N/A Snow Light Snow
1:55 AM 19.4 °F 3.6 °F 14.0 °F 80% 30.44 in 6.0 mi WNW 19.6 mph 25.3 mph N/A Snow Light Snow
2:15 AM 19.4 °F 3.2 °F 14.0 °F 80% 30.44 in 10.0 mi WNW 20.7 mph - N/A   Overcast
2:35 AM 17.6 °F 2.2 °F 14.0 °F 86% 30.45 in 10.0 mi NW 17.3 mph 27.6 mph N/A Snow Light Snow
2:55 AM 17.6 °F 1.3 °F 12.2 °F 79% 30.45 in 10.0 mi WNW 19.6 mph - N/A   Overcast
3:15 AM 17.6 °F 3.2 °F 14.0 °F 86% 30.44 in 9.0 mi WNW 15.0 mph - N/A Snow Light Snow
3:35 AM 17.6 °F 2.7 °F 14.0 °F 86% 30.44 in 10.0 mi NW 16.1 mph 21.9 mph N/A Snow Light Snow
3:55 AM 17.6 °F 2.2 °F 14.0 °F 86% 30.44 in 10.0 mi NW 17.3 mph 25.3 mph N/A Snow Light Snow
4:15 AM 17.6 °F 2.7 °F 12.2 °F 79% 30.44 in 10.0 mi NW 16.1 mph 26.5 mph N/A Snow Light Snow
4:35 AM 15.8 °F -0.2 °F 12.2 °F 86% 30.44 in 10.0 mi NW 17.3 mph - N/A   Mostly Cloudy
4:55 AM 15.8 °F 0.3 °F 10.4 °F 79% 30.45 in 10.0 mi NW 16.1 mph - N/A   Mostly Cloudy
5:15 AM 14.0 °F -0.8 °F 10.4 °F 86% 30.45 in 10.0 mi WNW 13.8 mph 20.7 mph N/A Snow Light Snow
5:35 AM 14.0 °F -0.8 °F 10.4 °F 86% 30.45 in 8.0 mi WNW 13.8 mph - N/A Snow Light Snow
5:55 AM 14.0 °F -1.4 °F 10.4 °F 86% 30.45 in 7.0 mi WNW 15.0 mph - N/A Snow Light Snow
6:15 AM 12.2 °F -3.7 °F 8.6 °F 85% 30.45 in 10.0 mi WNW 15.0 mph - N/A   Overcast
6:35 AM 12.2 °F -4.8 °F 8.6 °F 85% 30.45 in 10.0 mi WNW 17.3 mph - N/A   Overcast
6:55 AM 12.2 °F -3.7 °F 8.6 °F 85% 30.45 in 10.0 mi WNW 15.0 mph - N/A   Overcast
7:15 AM 14.0 °F -1.4 °F 10.4 °F 86% 30.45 in 10.0 mi WNW 15.0 mph - N/A   Overcast
7:35 AM 15.8 °F -0.6 °F 12.2 °F 86% 30.46 in 10.0 mi WNW 18.4 mph - N/A Snow Light Snow
7:55 AM 15.8 °F -0.6 °F 12.2 °F 86% 30.46 in 10.0 mi NW 18.4 mph 24.2 mph N/A   Overcast
8:15 AM 15.8 °F -0.6 °F 12.2 °F 86% 30.47 in 10.0 mi WNW 18.4 mph 26.5 mph N/A Snow Light Snow
8:35 AM 15.8 °F -0.2 °F 12.2 °F 86% 30.47 in 10.0 mi WNW 17.3 mph - N/A   Overcast
8:55 AM 15.8 °F -0.2 °F 12.2 °F 86% 30.47 in 9.0 mi NW 17.3 mph - N/A Snow Light Snow
9:15 AM 17.6 °F 0.9 °F 12.2 °F 79% 30.47 in 10.0 mi NW 20.7 mph - N/A Snow Light Snow
9:35 AM 17.6 °F 2.2 °F 14.0 °F 86% 30.48 in 10.0 mi NW 17.3 mph 25.3 mph N/A   Overcast
9:50 AM 19.4 °F 5.0 °F 14.0 °F 80% 30.47 in 10.0 mi NW 16.1 mph 23.0 mph N/A   Overcast
10:15 AM 19.4 °F 3.6 °F 14.0 °F 80% 30.48 in 10.0 mi NW 19.6 mph - N/A Snow Light Snow
10:35 AM 19.4 °F 4.5 °F 12.2 °F 74% 30.48 in 10.0 mi NW 17.3 mph 25.3 mph N/A Snow Light Snow
10:55 AM 19.4 °F 4.1 °F 14.0 °F 80% 30.48 in 10.0 mi NW 18.4 mph - N/A   Overcast
11:15 AM 19.4 °F 5.5 °F 14.0 °F 80% 30.47 in 10.0 mi WNW 15.0 mph 21.9 mph N/A   Mostly Cloudy
11:35 AM 19.4 °F 5.0 °F 14.0 °F 80% 30.47 in 10.0 mi NW 16.1 mph - N/A   Mostly Cloudy
11:55 AM 19.4 °F 4.1 °F 14.0 °F 80% 30.47 in 10.0 mi WNW 18.4 mph - N/A   Overcast
12:15 PM 19.4 °F 4.1 °F 14.0 °F 80% 30.46 in 10.0 mi WNW 18.4 mph - N/A   Mostly Cloudy
12:35 PM 19.4 °F 5.5 °F 14.0 °F 80% 30.45 in 10.0 mi WNW 15.0 mph 21.9 mph N/A   Mostly Cloudy
12:55 PM 21.2 °F 6.8 °F 12.2 °F 68% 30.45 in 10.0 mi WNW 17.3 mph - N/A   Overcast
1:15 PM 21.2 °F 6.4 °F 12.2 °F 68% 30.44 in 10.0 mi WNW 18.4 mph - N/A   Overcast
1:35 PM 21.2 °F 6.8 °F 12.2 °F 68% 30.43 in 10.0 mi WNW 17.3 mph - N/A   Mostly Cloudy
1:55 PM 21.2 °F 6.0 °F 12.2 °F 68% 30.43 in 10.0 mi WNW 19.6 mph - N/A   Scattered Clouds
2:15 PM 23.0 °F 10.1 °F 12.2 °F 63% 30.42 in 10.0 mi NW 15.0 mph 24.2 mph N/A   Mostly Cloudy
2:35 PM 23.0 °F 9.6 °F 12.2 °F 63% 30.42 in 10.0 mi WNW 16.1 mph 23.0 mph N/A   Mostly Cloudy
2:55 PM 23.0 °F 8.7 °F 12.2 °F 63% 30.42 in 10.0 mi NW 18.4 mph 25.3 mph N/A   Mostly Cloudy
3:15 PM 23.0 °F 9.2 °F 10.4 °F 59% 30.42 in 10.0 mi NW 17.3 mph - N/A   Overcast
3:35 PM 23.0 °F 10.1 °F 12.2 °F 63% 30.42 in 10.0 mi WNW 15.0 mph - N/A   Mostly Cloudy
3:55 PM 23.0 °F 11.1 °F 10.4 °F 59% 30.42 in 10.0 mi NW 12.7 mph 20.7 mph N/A   Overcast
4:15 PM 23.0 °F 10.6 °F 10.4 °F 59% 30.42 in 10.0 mi NW 13.8 mph - N/A   Mostly Cloudy
4:35 PM 21.2 °F 8.3 °F 10.4 °F 63% 30.42 in 10.0 mi WNW 13.8 mph 20.7 mph N/A   Mostly Cloudy
4:55 PM 21.2 °F 8.9 °F 10.4 °F 63% 30.42 in 10.0 mi WNW 12.7 mph - N/A   Mostly Cloudy
5:15 PM 21.2 °F 7.3 °F 10.4 °F 63% 30.42 in 10.0 mi WNW 16.1 mph - N/A   Overcast
5:35 PM 17.6 °F 5.0 °F 10.4 °F 73% 30.42 in 10.0 mi WNW 11.5 mph - N/A   Mostly Cloudy
5:55 PM 17.6 °F 5.7 °F 10.4 °F 73% 30.42 in 10.0 mi WNW 10.4 mph - N/A   Clear
6:15 PM 15.8 °F 3.4 °F 10.4 °F 79% 30.42 in 10.0 mi WNW 10.4 mph - N/A   Clear
6:35 PM 15.8 °F 3.4 °F 8.6 °F 73% 30.43 in 10.0 mi WNW 10.4 mph - N/A   Clear
6:55 PM 15.8 °F 3.4 °F 8.6 °F 73% 30.43 in 10.0 mi WNW 10.4 mph - N/A   Clear
7:15 PM 15.8 °F 3.4 °F 8.6 °F 73% 30.43 in 10.0 mi WNW 10.4 mph - N/A   Clear
7:35 PM 14.0 °F 2.0 °F 8.6 °F 79% 30.43 in 10.0 mi WNW 9.2 mph - N/A   Clear
7:55 PM 10.4 °F -0.4 °F 6.8 °F 85% 30.43 in 10.0 mi West 6.9 mph - N/A   Clear
8:15 PM 12.2 °F -1.0 °F 6.8 °F 79% 30.42 in 10.0 mi NW 10.4 mph - N/A   Clear
8:35 PM 14.0 °F 2.0 °F 6.8 °F 73% 30.43 in 10.0 mi NW 9.2 mph - N/A   Clear
8:55 PM 12.2 °F 1.7 °F 6.8 °F 79% 30.43 in 10.0 mi NW 6.9 mph - N/A   Clear
9:15 PM 10.4 °F -0.4 °F 5.0 °F 79% 30.43 in 10.0 mi WNW 6.9 mph - N/A   Clear
9:35 PM 10.4 °F -1.5 °F 5.0 °F 79% 30.43 in 10.0 mi WNW 8.1 mph - N/A   Clear
9:55 PM 10.4 °F -3.3 °F 5.0 °F 79% 30.43 in 10.0 mi WNW 10.4 mph - N/A   Clear
10:15 PM 10.4 °F -4.1 °F 5.0 °F 79% 30.43 in 10.0 mi NW 11.5 mph - N/A   Clear
10:35 PM 10.4 °F -4.8 °F 5.0 °F 79% 30.43 in 10.0 mi NW 12.7 mph - N/A   Clear
10:55 PM 10.4 °F -2.4 °F 5.0 °F 79% 30.43 in 10.0 mi NW 9.2 mph - N/A   Clear
11:15 PM 10.4 °F -4.1 °F 5.0 °F 79% 30.43 in 10.0 mi NW 11.5 mph - N/A   Clear
11:35 PM 8.6 °F -4.7 °F 5.0 °F 85% 30.43 in 10.0 mi NW 9.2 mph - N/A   Clear
11:55 PM 8.6 °F -2.6 °F 3.2 °F 79% 30.43 in 10.0 mi NW 6.9 mph - N/A   Clear